Home > Weather > Gifhorn > Past weeks

Flag for Germany Past Weather in Gifhorn, Lower Saxony, Germany — Yesterday and Last 2 Weeks

Now
52 °F

Low clouds.


Feels Like: 47 °F
Forecast: 49 / 67 °F
Wind: 14 mph from Northwest

Location: Braunschweig Wolfsburg

Current Time: May 24, 2016 at 1:56:37 PM

Latest Report: May 24, 2016 at 1:20 PM


Visibility: N/A

Pressure: 29.92 "Hg

Humidity: 94%

Dew Point: 50 °F

Location of GifhornLocation

Past Weather in Gifhorn — Graph

°F

Gifhorn Temperature Yesterday

Maximum temperature yesterday: 72 °F (at 4:50 PM)
Minimum temperature yesterday: 59 °F (at 6:50 AM)
Average temperature yesterday: 67 °F

High & Low Weather Summary for the Past Weeks

 TemperatureHumidityPressure
High84 °F (May 22, 3:20 PM)100% (May 24, 6:50 AM)30.07 "Hg (May 24, 6:50 AM)
Low41 °F (May 16, 7:20 AM)23% (May 13, 1:20 PM)29.53 "Hg (May 12, 5:50 PM)
Average64 °F55%29.84 "Hg
* Reported May 9 12:20 PM — May 24 12:20 PM, Gifhorn, Weather by CustomWeather, © 2016

Note: Actual official high and low records may vary slightly from our data, if they occured in-between our weather recording intervals... More about our weather records

Advertising

Gifhorn Weather History for the Previous 24 Hours

Scroll right to see more
 ConditionsComfort  
Time TempWeatherWind HumidityBarometerVisibility
12:20 PM
Tue, May 24
54 °FLow clouds.10 mph88%29.92 "HgN/A
11:50 AM52 °FLow clouds.10 mph94%29.89 "HgN/A
11:20 AM52 °FDrizzle. Low clouds.10 mph94%29.89 "HgN/A
10:50 AM52 °FLow clouds.12 mph94%29.89 "HgN/A
10:20 AM54 °FDrizzle. Low clouds.12 mph94%29.89 "HgN/A
9:50 AM54 °FDrizzle. Low clouds.10 mph94%29.89 "HgN/A
9:20 AM54 °FDrizzle. Low clouds.9 mph94%29.86 "Hg5 mi
8:50 AM54 °FLight rain. Low clouds.9 mph94%29.86 "Hg3 mi
8:20 AM54 °FRain. Fog.10 mph94%29.86 "Hg3 mi
7:50 AM54 °FLight rain. Low clouds.10 mph100%29.86 "Hg4 mi
7:20 AM54 °FLight rain. Low clouds.10 mph100%29.86 "Hg4 mi
6:50 AM54 °FLow clouds.10 mph100%29.86 "HgN/A
9:50 PM
Mon, May 23
64 °FPartly sunny.15 mph73%29.80 "HgN/A
9:20 PM66 °FPassing clouds.10 mph64%29.80 "HgN/A
8:50 PM68 °FPassing clouds.9 mph60%29.80 "HgN/A
8:20 PM70 °FPassing clouds.8 mph57%29.80 "HgN/A
7:50 PM72 °FPassing clouds.8 mph50%29.80 "HgN/A
7:20 PM70 °FScattered clouds.8 mph53%29.80 "HgN/A
6:50 PM72 °FPassing clouds.7 mph50%29.80 "HgN/A
6:20 PM72 °FPassing clouds.7 mph50%29.80 "HgN/A
5:50 PM72 °FPassing clouds.8 mph50%29.80 "HgN/A
5:20 PM72 °FPassing clouds.7 mph50%29.80 "HgN/A
4:50 PM72 °FScattered clouds.7 mph50%29.80 "HgN/A
4:20 PM70 °FScattered clouds.9 mph53%29.80 "HgN/A
3:50 PM70 °FScattered clouds.7 mph57%29.80 "HgN/A
3:20 PM70 °FScattered clouds.9 mph57%29.80 "HgN/A
2:50 PM68 °FScattered clouds.12 mph60%29.80 "HgN/A
2:20 PM70 °FScattered clouds.10 mph57%29.80 "HgN/A
1:50 PM68 °FBroken clouds.12 mph64%29.80 "HgN/A
1:20 PM70 °FBroken clouds.9 mph60%29.80 "HgN/A
Weather by CustomWeather, © 2016

See weather overviewHow to use our weather pages